[[{"header":{"parameterUnit":"m.s-1","parameterCategory":1,"la1":30.2991,"la2":30.254,"lo1":-89.0895,"lo2":-89.0444,"dy":0.0017,"dx":0.0017,"nx":28,"ny":28,"refTime":"2023-09-07T09:00:00:Z","depth":0,"parameterNumber":2,"parameterNumberName":"U-component_of_WINDS"},"data":[0,0,0,0,0,0,0,0,0,0,0,0,0,0,0,0,0,0,0,0,0,0,0,0,0,0,0,0,0,0,0,0,0,0,0,0,0,0,0,0,0,0,0,0,0,0,0,0,0,0,0,0,0,0,0,0,0,0,4.1904,4.1905,0,4.197,4.1971,4.1972,4.1822,4.1817,4.1812,4.1808,4.1879,4.1885,4.1892,0,0,0,0,0,0,0,0,0,0,0,0,0,4.1648,4.1653,4.1904,4.1905,4.1906,4.197,4.1971,4.1972,4.1823,4.1817,4.1811,4.1805,4.1877,4.1885,4.1892,0,0,0,0,0,0,0,0,0,0,0,0,0,4.1741,4.1655,4.1904,4.1839,4.1833,4.197,4.1971,4.1972,4.1824,4.1817,4.1809,4.1803,4.1875,4.1884,4.1893,4.2097,0,0,4.1923,4.1927,0,0,0,0,0,0,0,0,4.1736,4.1751,4.1847,4.1843,4.1838,4.188,4.1907,4.2014,4.1826,4.1828,4.1808,4.1799,4.1886,4.1894,4.1922,4.2101,4.2104,4.1924,4.1929,4.1933,4.1936,0,0,0,0,0,0,0,4.173,4.1747,4.193,4.1849,4.1843,4.1806,4.1812,4.1927,4.1897,4.1827,4.1816,4.1826,4.1882,4.1913,4.1923,4.2105,4.1923,4.1932,4.1938,4.1941,4.2451,4.2458,0,0,0,0,0,0,4.1732,4.1743,4.1928,4.1932,4.1768,4.1817,4.1823,4.1874,4.1895,4.1891,4.1832,4.1819,4.1901,4.1912,4.1925,4.2163,4.1933,4.1942,4.1948,4.2443,4.2452,4.2461,0,0,0,0,0,0,4.1727,4.175,4.1925,4.1835,4.1854,4.1829,4.1888,4.1879,4.1911,4.1899,4.1893,4.187,4.1895,4.1911,4.2055,4.2164,4.1947,4.1955,4.2434,4.2446,4.2457,4.2643,0,0,0,0,0,0,4.172,4.1749,4.1826,4.1837,4.186,4.2055,4.1895,4.1886,4.1927,4.1911,4.1933,4.1929,4.1891,4.2041,4.2064,4.2173,4.1963,4.2424,4.2439,4.2453,4.2627,4.266,4.2688,0,0,0,0,0,4.1711,4.1877,4.1831,4.1854,4.1956,4.2061,4.2074,4.2025,4.1937,4.2014,4.2006,4.1929,4.2148,4.2057,4.2082,4.2195,4.2417,4.2435,4.2452,4.2614,4.2654,4.2687,0,0,0,0,0,0,4.1881,4.1878,4.1826,4.2,4.2032,4.2036,4.2132,4.2069,4.2128,4.211,4.2047,4.2054,4.2209,4.2216,4.2115,4.2392,4.2267,4.2291,4.2382,4.242,4.2449,4.2445,4.1971,0,0,0,0,0,4.1938,4.2024,4.2016,4.2171,4.2189,4.2158,4.2203,4.2162,4.2192,4.2206,4.2208,4.2241,4.2317,4.2369,4.2438,4.2627,4.2629,4.2717,4.2747,4.2772,4.2793,4.2892,4.2931,4.2518,4.2518,4.2518,0,0,4.2059,4.2067,4.2126,4.2205,4.2225,4.2315,4.2171,4.2273,4.2338,4.2221,4.2356,4.2359,4.2392,4.2559,4.2632,4.2569,4.2907,4.2795,4.2814,4.2822,4.2914,4.2953,4.2988,4.253,4.2528,4.2526,0,0,4.2323,4.2339,4.2468,4.249,4.2521,4.2499,4.253,4.2543,4.254,4.2673,4.2587,4.2664,4.2797,4.2823,4.2854,4.3126,4.3057,4.315,4.3309,4.3406,4.3438,4.3467,4.3563,4.3598,4.3171,4.3172,4.3172,0,4.2469,4.2601,4.2543,4.265,4.2688,4.2583,4.2714,4.2738,4.2791,4.2819,4.2747,4.291,4.2925,4.3095,4.3161,4.319,4.3223,4.3148,4.3438,4.3466,4.3492,4.3583,4.3619,4.3183,4.3181,4.318,4.3179,0,4.2778,4.2871,4.2971,4.3023,4.3071,4.319,4.315,4.3206,4.316,4.3146,4.3282,4.3296,4.3365,4.3403,4.336,4.3567,4.3527,4.3448,4.3321,4.3543,4.3627,4.3662,4.3199,4.3195,4.3191,4.3188,0,0,4.3154,4.317,4.3208,4.3229,4.3254,4.3324,4.3437,4.3503,4.3552,4.3592,4.3684,4.3797,4.3723,4.3759,4.3718,4.3803,4.4016,4.3713,4.3713,4.3768,4.4243,4.4302,4.4344,4.3969,4.3976,4.3981,4.424,0,4.3415,4.3609,4.3559,4.3751,4.3835,4.3736,4.3834,4.386,4.3848,4.3918,4.3905,4.3986,4.3883,4.3903,4.3982,4.3973,4.411,4.3954,4.4055,4.406,4.4051,4.4388,4.4452,4.4695,4.4272,4.4278,4.4282,0,4.3747,4.3797,4.3997,4.4006,4.4039,4.4128,4.4184,4.4251,4.4278,4.4263,4.4302,4.4243,4.4353,4.4225,4.4377,4.4271,4.4309,4.4311,4.4319,4.4327,4.4185,4.4405,4.4772,4.4809,4.4334,4.4329,4.4326,0,4.4,4.4118,4.4252,4.4273,4.4287,4.4352,4.4361,4.438,4.4422,4.447,4.4497,4.4559,4.4593,4.4641,4.46,4.4511,4.4758,4.4627,4.4749,4.475,4.4807,4.4804,4.5185,4.4832,4.4831,4.483,4.483,0,4.4298,4.4424,4.4365,4.4449,4.4587,4.4527,4.4666,4.4663,4.4681,4.4761,4.4679,4.4756,4.4697,4.4769,4.4738,4.4867,4.4884,4.4875,4.4865,4.4883,4.4884,4.4907,4.4889,4.484,4.4838,4.4836,4.4834,0,4.4605,4.4571,4.4711,4.4711,4.4714,4.4816,4.4816,4.4893,4.4874,4.4976,4.4997,4.4968,4.5048,4.5012,4.5097,4.5075,4.5242,4.5209,4.5233,4.5224,4.5348,4.5337,4.5759,4.581,4.5424,4.5428,4.5431,0,4.4797,4.4892,4.4902,4.4949,4.4963,4.504,4.5082,4.5027,4.5074,4.5109,4.5182,4.5254,4.5309,4.5442,4.5429,4.5492,4.5461,4.5604,4.547,4.5484,4.5462,4.5457,4.5466,4.5632,4.5636,4.564,4.5643,0,4.5142,4.512,4.5183,4.524,4.5291,4.5334,4.5369,4.5413,4.5358,4.5415,4.5495,4.5538,4.5622,4.5695,4.5751,4.5759,4.5693,4.5684,4.5716,4.5735,4.5744,4.574,4.5306,4.5676,4.5672,4.567,4.5668,4.5667,4.5397,4.5476,4.5494,4.5567,4.5587,4.5621,4.5692,4.5681,4.5747,4.581,4.5773,4.5867,4.5889,4.5955,4.5973,4.6045,4.5988,4.6035,4.6046,4.6059,4.6075,4.5732,4.6055,4.6054,4.6053,4.6052,4.6052,0,4.5737,4.5743,4.581,4.5861,4.5918,4.5848,4.5882,4.5935,4.6017,4.6043,4.6098,4.6189,4.6258,4.6249,4.6313,4.6372,4.6343,4.6391,4.6386,4.6389,4.6122,4.6088,4.6413,4.6413,4.6413,4.6413,4.6413,4.6413,4.5921,4.6049,4.6029,4.6166,4.6171,4.6261,4.6286,4.6317,4.6337,4.6442,4.6498,4.6491,4.6503,4.6565,4.6626,4.6621,4.6648,4.6708,4.6692,4.6443,4.6408,4.6374,4.6341,4.6714,4.6714,4.6952,4.6954,4.6956]},{"header":{"parameterUnit":"m.s-1","parameterCategory":1,"la1":30.2991,"la2":30.254,"lo1":-89.0895,"lo2":-89.0444,"dy":0.0017,"dx":0.0017,"nx":28,"ny":28,"refTime":"2023-09-07T09:00:00:Z","depth":0,"parameterNumber":3,"parameterNumberName":"V-component_of_WINDS"},"data":[0,0,0,0,0,0,0,0,0,0,0,0,0,0,0,0,0,0,0,0,0,0,0,0,0,0,0,0,0,0,0,0,0,0,0,0,0,0,0,0,0,0,0,0,0,0,0,0,0,0,0,0,0,0,0,0,0,0,1.9845,1.9847,0,1.9975,1.9977,1.9978,1.9973,1.9972,1.997,1.9968,2.0106,2.0111,2.0116,0,0,0,0,0,0,0,0,0,0,0,0,0,1.9595,1.96,1.9845,1.9847,1.9848,1.9975,1.9977,1.9979,1.9974,1.9971,1.9969,1.9967,2.0104,2.011,2.0117,0,0,0,0,0,0,0,0,0,0,0,0,0,1.9712,1.9601,1.9845,1.9861,1.9864,1.9975,1.9977,1.9979,1.9974,1.9971,1.9969,1.9966,2.0102,2.011,2.0118,2.0222,0,0,2.0142,2.0146,0,0,0,0,0,0,0,0,1.9706,1.9722,1.9857,1.986,1.9863,1.9955,1.9939,2.0061,1.9975,1.9932,1.9968,1.9965,2.0058,2.007,2.01,2.0229,2.0235,2.0143,2.0148,2.0151,2.0154,0,0,0,0,0,0,0,1.9698,1.9716,1.9897,1.9859,1.9863,1.9863,1.9876,1.9962,2.0009,1.9936,1.9936,1.9951,2.0059,2.0092,2.0103,2.0237,2.0143,2.015,2.0155,2.0158,2.0456,2.0459,0,0,0,0,0,0,1.9685,1.9709,1.9893,1.9901,1.9776,1.9869,1.9885,1.9929,2.0008,2.0018,1.9953,1.995,2.008,2.0094,2.0108,2.0235,2.0151,2.0159,2.0163,2.0453,2.0456,2.046,0,0,0,0,0,0,1.968,1.9702,1.9887,1.9805,1.9828,1.9877,1.9926,1.9933,1.9966,2.0021,2.003,1.9978,2.0078,2.0097,2.0193,2.0239,2.0162,2.017,2.0449,2.0454,2.0458,2.0489,0,0,0,0,0,0,1.9673,1.97,1.974,1.9806,1.9833,1.9969,1.9929,1.9937,1.9979,1.9976,2.0047,2.0056,2.0078,2.0181,2.0201,2.0249,2.0176,2.0445,2.0451,2.0456,2.0484,2.0494,2.0503,0,0,0,0,0,1.9664,1.9745,1.9742,1.9764,1.9883,1.9972,1.9988,2.0009,1.9983,2.0023,2.0059,2.0054,2.0231,2.0191,2.0214,2.0265,2.0442,2.0449,2.0456,2.048,2.0492,2.0502,0,0,0,0,0,0,1.9685,1.9754,1.9751,1.9855,1.9908,1.9971,2.0023,2.0022,2.0084,2.0079,2.0105,2.0121,2.0217,2.0251,2.0205,2.0369,2.0333,2.0345,2.0344,2.0356,2.0365,2.0355,2.0183,0,0,0,0,0,1.9701,1.9766,1.9823,1.991,1.9936,1.9975,2.0014,2.0026,2.0082,2.0105,2.0147,2.0203,2.0271,2.0315,2.0381,2.0489,2.0504,2.0535,2.0544,2.0551,2.0561,2.0619,2.0633,2.0482,2.0482,2.0482,0,0,1.9737,1.9782,1.9822,1.9915,1.9957,2.0024,1.9994,2.0067,2.0117,2.0117,2.0209,2.0242,2.0306,2.0408,2.0455,2.0438,2.0606,2.056,2.0566,2.0572,2.0628,2.0642,2.0655,2.0487,2.0486,2.0485,0,0,1.9835,1.9876,1.9952,1.9994,2.0056,2.0081,2.0099,2.0163,2.0184,2.0277,2.0277,2.0338,2.0455,2.0499,2.0538,2.065,2.0648,2.0671,2.072,2.0776,2.0788,2.0798,2.0838,2.0852,2.0681,2.0681,2.0681,0,1.9871,1.9972,1.9991,2.0064,2.0105,2.0105,2.0181,2.0222,2.0304,2.0332,2.0312,2.0457,2.05,2.0612,2.0639,2.067,2.0691,2.0663,2.0784,2.0795,2.0805,2.0843,2.0858,2.0683,2.0683,2.0683,2.0682,0,2.0012,2.0082,2.0136,2.0212,2.0259,2.0334,2.0365,2.041,2.0417,2.0445,2.0539,2.059,2.0665,2.0692,2.0702,2.0805,2.0793,2.0778,2.0743,2.0822,2.0858,2.0872,2.0687,2.0686,2.0685,2.0684,0,0,2.0129,2.0213,2.0233,2.0266,2.0335,2.039,2.0464,2.0535,2.0573,2.063,2.0692,2.079,2.0776,2.0819,2.0833,2.0883,2.0967,2.0862,2.0864,2.0879,2.1083,2.1093,2.1109,2.0966,2.0969,2.0971,2.1077,0,2.0234,2.0364,2.0382,2.0498,2.0562,2.0562,2.0626,2.0675,2.0702,2.0761,2.0792,2.086,2.0837,2.0863,2.0912,2.0946,2.1008,2.0939,2.1025,2.1028,2.1008,2.1128,2.114,2.1238,2.1092,2.1094,2.1096,0,2.0374,2.0431,2.0551,2.0609,2.0637,2.0694,2.076,2.0817,2.0872,2.0888,2.0935,2.0942,2.102,2.0981,2.1087,2.104,2.1076,2.1098,2.1102,2.1111,2.1066,2.114,2.127,2.1284,2.1118,2.1116,2.1115,0,2.0445,2.0552,2.0638,2.0667,2.0737,2.0777,2.0808,2.0861,2.0902,2.0961,2.0987,2.1055,2.1092,2.1144,2.1169,2.1138,2.1274,2.1237,2.1289,2.1289,2.1318,2.1316,2.1455,2.1342,2.1342,2.1342,2.1341,0,2.056,2.0633,2.0671,2.0723,2.0806,2.0827,2.0908,2.0938,2.0985,2.1043,2.1049,2.1104,2.1134,2.1194,2.1215,2.1299,2.1316,2.1332,2.1336,2.1331,2.1329,2.1355,2.1348,2.1346,2.1345,2.1344,2.1343,0,2.0654,2.0682,2.0775,2.0832,2.0848,2.0906,2.0956,2.1007,2.1033,2.1107,2.1126,2.1167,2.1237,2.1268,2.1356,2.1369,2.1466,2.1466,2.1446,2.1448,2.1498,2.1492,2.1658,2.1681,2.1553,2.1555,2.1556,0,2.0725,2.0781,2.0843,2.0882,2.0914,2.0977,2.1018,2.1041,2.1084,2.115,2.1193,2.1263,2.132,2.1433,2.1472,2.1538,2.154,2.1593,2.155,2.1542,2.1539,2.1535,2.1541,2.1601,2.1602,2.1603,2.1604,0,2.0847,2.0858,2.0916,2.0979,2.1028,2.1079,2.1129,2.1161,2.1191,2.1239,2.131,2.1355,2.1442,2.1512,2.158,2.1614,2.1614,2.1617,2.1633,2.1628,2.1614,2.1621,2.1467,2.1614,2.1613,2.1612,2.1611,2.1611,2.0932,2.0981,2.1032,2.1096,2.1136,2.1182,2.1232,2.1263,2.1322,2.1394,2.1404,2.148,2.1533,2.1625,2.166,2.172,2.1707,2.173,2.1736,2.1741,2.1743,2.1604,2.1733,2.1733,2.1733,2.1733,2.1732,0,2.1054,2.1086,2.1145,2.1213,2.1264,2.1258,2.1313,2.1356,2.1421,2.147,2.1525,2.1607,2.1674,2.1716,2.1784,2.1823,2.1825,2.184,2.1838,2.1845,2.1752,2.1731,2.1838,2.1838,2.1838,2.1838,2.1838,2.1838,2.1123,2.1205,2.1222,2.1323,2.1355,2.1428,2.146,2.1502,2.1541,2.163,2.1685,2.1712,2.1758,2.1828,2.189,2.19,2.1925,2.1941,2.1951,2.1863,2.1852,2.1841,2.1822,2.1946,2.1946,2.2039,2.204,2.204]}]]